Regional Weather Roundup
Issued by NWS

Home | Current Version | Previous Version | Graphics & Text | Print | Product List | Glossary On
Versions: 1 2 3 4 5 6 7 8 9 10 11 12 13 14 15 16 17 18 19 20 21 22 23 24 25 26 27 28
000
ASUS45 KTFX 010110
RWRMT
MONTANA REGIONAL WEATHER ROUNDUP
NATIONAL WEATHER SERVICE GREAT FALLS MT
700 PM MDT SAT APR 30 2016

NOTE: "FAIR" INDICATES FEW OR NO CLOUDS BELOW 12000 FEET WITH NO
SIGNIFICANT WEATHER AND/OR OBSTRUCTIONS TO VISIBILITY.

MTZ001>007-043-010200-
WEST OF THE DIVIDE

CITY           SKY/WX    TMP DP  RH WIND       PRES   REMARKS
KALISPELL      CLOUDY    61  31  32 NE13      30.22S
MISSOULA       CLOUDY    52  43  71 SE3       30.24R
BUTTE          CLOUDY    44  31  60 N3        30.23R
MULLAN PASS    CLOUDY    43  31  62 CALM      30.26R
ANACONDA         N/A     45  34  65 N18       30.23S
DEER LODGE       N/A     46  36  66 N10       30.26S
EUREKA           N/A     63  32  31 NW7       30.24R
HAMILTON         N/A     52  39  62 N18       30.21R
LIBBY            N/A     63  34  34 CALM      30.22S
PLAINS           N/A     59  42  53 CALM      30.21S
$$

MTZ008-052>055-010200-
SOUTHWEST MONTANA

CITY           SKY/WX    TMP DP  RH WIND       PRES   REMARKS
BOZEMAN        CLOUDY    50  31  48 E10       30.23R
DILLON         CLOUDY    47  32  56 N21       30.17R
ENNIS          PTSUNNY   45  32  61 N15G21    30.22R
THREE FORKS      N/A     50  19  29 NE5       30.20R
TWIN BRIDGES     N/A     48  31  52 N20       30.15R
$$

MTZ009-010-012-014-046-048-049-054-010200-
EAST SLOPES AND CENTRAL MONTANA

CITY           SKY/WX    TMP DP  RH WIND       PRES   REMARKS
CUT BANK       CLOUDY    50  36  58 E5        30.30S
GREAT FALLS    CLOUDY    52  35  52 E13       30.27R
HELENA         CLOUDY    51  37  58 N8        30.25R
CHOTEAU          N/A     50  37  62 NE5       30.30R
CONRAD           N/A     53  41  64 N6        30.29S
$$

MTZ011-013-016-021-045-047-050-051-010200-
NORTH CENTRAL MONTANA

CITY           SKY/WX    TMP DP  RH WIND       PRES   REMARKS
HAVRE          SUNNY     59  33  37 E7        30.28R
LEWISTOWN      CLOUDY    51  32  48 E7        30.28S
N BAR RANCH    CLOUDY    48  32  53 E9        30.30S
CHINOOK          N/A     59  34  38 E8        30.28S
$$

MTZ017>020-022>027-061-062-010200-
NORTHEAST MONTANA

CITY           SKY/WX    TMP DP  RH WIND       PRES   REMARKS
GLASGOW        SUNNY     61  27  27 E13       30.26S
JORDAN           N/A     56  32  40 NE8       30.25S
SIDNEY         SUNNY     61  28  29 NE9       30.26S
WOLF POINT     SUNNY     63  28  26 E9        30.26S
PLENTYWOOD       N/A     61  25  25 E9        30.28S
POPLAR           N/A     61  27  27 E5        30.27S
SCOBEY           N/A     61  26  26 E5        30.26R
$$

MTZ028>42-056>058-010200-
SOUTHCENTRAL AND SOUTHEAST MONTANA

CITY           SKY/WX    TMP DP  RH WIND       PRES   REMARKS
BAKER          PTCLDY    54  31  41 E13       30.24R
BILLINGS       CLOUDY    52  32  46 E8        30.25R
LIVINGSTON     CLOUDY    44  33  65 E10       30.25R
MILES CITY     MOSUNNY   57  32  38 NE9       30.23R
EKALAKA          N/A     52  29  41 N9        30.19R
FORSYTH          N/A     57  30  35 NE7       30.24R
LAUREL           N/A     51  29  43 NE3       30.21R
ROUNDUP          N/A     53  30  41 NE3       30.16R
$$

REGIONAL REPORTS...DAKOTAS

CITY           SKY/WX    TMP DP  RH WIND       PRES   REMARKS
WILLISTON      CLEAR     61  29  29 E10       30.26R
MINOT          CLEAR     63  24  22 NE12      30.24S
DICKINSON      PTCLDY    53  26  35 NE10      30.22R
BEACH            N/A     54  27  35 E9        30.28R
CROSBY           N/A     59  23  25 NE10      30.30S
WATFORD CITY     N/A     57  28  33 E9        30.26S
BISMARCK       CLOUDY    57  28  33 NE12      30.21R
GRAND FORKS    PTCLDY    56  27  32 NE15      30.22S
FARGO          CLOUDY    58  26  29 NE15G25   30.16R
BUFFALO SD       N/A     52  30  43 NE14      30.14R
RAPID CITY     CLOUDY    49  32  52 NE16      30.14R
$$

REGIONAL REPORTS...WYOMING/IDAHO/WASHINGTON

CITY           SKY/WX    TMP DP  RH WIND       PRES   REMARKS
GILLETTE       CLOUDY    47  32  56 N12       30.19R
SHERIDAN       CLOUDY    48  37  65 W5        30.24R
BUFFALO WY       N/A    N/A N/A N/A MISG      30.24R
CODY           CLOUDY    45  30  57 NW15G21   30.21R
YELLOWSTONE LA   N/A     38  25  59 E6        30.19R
IDAHO FALLS    LGT RAIN  56  34  43 E15G24    30.03R
SALMON         CLOUDY    48  37  66 E9G18     30.16R
BOISE          SUNNY     65  30  27 NW24G33   30.00R
SPOKANE        MOSUNNY   63  37  38 N7        30.22S
$$

REGIONAL REPORTS...ALBERTA

CITY           SKY/WX    TMP DP  RH WIND       PRES   REMARKS
EDMONTON       PTSUNNY   63  34  34 SW9       30.20S
CALGARY        MOSUNNY   55  28  35 VRB3      30.28S
LETHBRIDGE     PTSUNNY   57  32  38 VRB5      30.28S
MEDICINE HAT   CLOUDY    59  36  41 S6        30.29R
WATERTON GATE    N/A     52  32  46 N6          N/A
MILK RIVER       N/A     54  36  50 S7          N/A
$$

REGIONAL REPORTS...SASKATCHEWAN

CITY           SKY/WX    TMP DP  RH WIND       PRES   REMARKS
SWIFT CURRENT  SUNNY     61  27  27 SE5       30.27S
REGINA         MOSUNNY   61  25  25 SE8       30.30R
SASKATOON      MOSUNNY   64  25  22 S6        30.29S
CYPRESS HILLS    N/A     52  28  40 S5          N/A
VAL MARIE        N/A     61  27  27 SE7         N/A
ROCKGLEN         N/A     59  27  29 E3          N/A
$$




USA.gov is the U.S. government's official web portal to all federal, state and local government web resources and services.